| time (UTC) | temp F | wind direction | speed MPH | gust MPH | rain 1hr in | rain 24hr in | rain mn in | humidity % | barometer mb |
| 20260901083029 | 79 | 238 | 2.0 | 4.0 | 0.00 | 0.00 | 0.00 | 78 | 1015.2 |
| 20260901082959 | 79 | 238 | 2.0 | 4.0 | 0.00 | 0.00 | 0.00 | 78 | 1017.0 |
| 20260901082448 | 79 | 241 | 3.0 | 4.0 | 0.00 | 0.00 | 0.00 | 77 | 1016.9 |
| 20260901081937 | 79 | 238 | 3.0 | 4.0 | 0.00 | 0.00 | 0.00 | 78 | 1016.9 |
| 20260901081521 | 79 | 238 | 3.0 | 4.0 | 0.00 | 0.00 | 0.00 | 78 | 1015.1 |
| 20260901081427 | 79 | 238 | 3.0 | 4.0 | 0.00 | 0.00 | 0.00 | 77 | 1016.9 |
| 20260901080928 | 79 | 238 | 3.0 | 4.0 | 0.00 | 0.00 | 0.00 | 78 | 1016.9 |
| 20260901080441 | 79 | 238 | 3.0 | 4.0 | 0.00 | 0.00 | 0.00 | 78 | 1016.9 |
| 20260901080029 | 79 | 238 | 3.0 | 4.0 | 0.00 | 0.00 | 0.00 | 78 | 1015.0 |
| 20260901075931 | 79 | 244 | 3.0 | 4.0 | 0.00 | 0.00 | 0.00 | 78 | 1016.8 |
| 20260901075433 | 79 | 221 | 3.0 | 4.0 | 0.00 | 0.00 | 0.00 | 78 | 1016.8 |
| 20260901074924 | 79 | 243 | 3.0 | 4.0 | 0.00 | 0.00 | 0.00 | 77 | 1016.8 |
| 20260901074537 | 79 | 236 | 2.0 | 4.0 | 0.00 | 0.00 | 0.00 | 77 | 1015.0 |
| 20260901074431 | 80 | 236 | 3.0 | 4.0 | 0.00 | 0.00 | 0.00 | 77 | 1016.8 |
| 20260901073932 | 80 | 236 | 3.0 | 5.0 | 0.00 | 0.00 | 0.00 | 76 | 1016.8 |
| 20260901073423 | 80 | 238 | 3.0 | 5.0 | 0.00 | 0.00 | 0.00 | 76 | 1016.8 |
| 20260901073042 | 80 | 238 | 2.0 | 4.0 | 0.00 | 0.00 | 0.00 | 76 | 1015.1 |
| 20260901072924 | 80 | 238 | 2.0 | 4.0 | 0.00 | 0.00 | 0.00 | 76 | 1016.9 |
| 20260901072435 | 80 | 236 | 2.0 | 4.0 | 0.00 | 0.00 | 0.00 | 75 | 1016.8 |
| 20260901071926 | 81 | 232 | 2.0 | 4.0 | 0.00 | 0.00 | 0.00 | 75 | 1016.7 |
| 20260901071549 | 80 | 228 | 2.0 | 4.0 | 0.00 | 0.00 | 0.00 | 74 | 1014.9 |
| 20260901071428 | 81 | 219 | 2.0 | 4.0 | 0.00 | 0.00 | 0.00 | 74 | 1016.7 |
| 20260901070958 | 81 | 229 | 2.0 | 4.0 | 0.00 | 0.00 | 0.00 | 74 | 1016.6 |
| 20260901070428 | 81 | 222 | 3.0 | 4.0 | 0.00 | 0.00 | 0.00 | 74 | 1016.6 |
| 20260901070036 | 81 | 236 | 2.0 | 4.0 | 0.00 | 0.00 | 0.00 | 73 | 1014.9 |
| 20260901065939 | 81 | 200 | 2.0 | 4.0 | 0.00 | 0.00 | 0.00 | 73 | 1016.6 |
| 20260901065508 | 82 | 216 | 2.0 | 5.0 | 0.00 | 0.00 | 0.00 | 73 | 1016.6 |
| 20260901064930 | 82 | 235 | 3.0 | 6.0 | 0.00 | 0.00 | 0.00 | 73 | 1016.6 |
| 20260901064533 | 81 | 233 | 2.0 | 6.0 | 0.00 | 0.00 | 0.00 | 73 | 1014.9 |
| 20260901064502 | 82 | 239 | 2.0 | 6.0 | 0.00 | 0.00 | 0.00 | 73 | 1016.6 |
| 20260901063932 | 82 | 229 | 3.0 | 5.0 | 0.00 | 0.00 | 0.00 | 72 | 1016.7 |
| 20260901063445 | 82 | 212 | 2.0 | 5.0 | 0.00 | 0.00 | 0.00 | 72 | 1016.7 |
| 20260901063008 | 82 | 227 | 2.0 | 5.0 | 0.00 | 0.00 | 0.00 | 72 | 1014.9 |
| 20260901062924 | 82 | 229 | 3.0 | 5.0 | 0.00 | 0.00 | 0.00 | 72 | 1016.8 |
| 20260901062433 | 82 | 235 | 3.0 | 5.0 | 0.00 | 0.00 | 0.00 | 72 | 1016.7 |
| 20260901061935 | 82 | 229 | 3.0 | 5.0 | 0.00 | 0.00 | 0.00 | 72 | 1016.7 |
| 20260901061516 | 82 | 216 | 2.0 | 4.0 | 0.00 | 0.00 | 0.00 | 72 | 1015.0 |
| 20260901061425 | 82 | 232 | 3.0 | 4.0 | 0.00 | 0.00 | 0.00 | 72 | 1016.8 |
| 20260901060934 | 82 | 216 | 2.0 | 4.0 | 0.00 | 0.00 | 0.00 | 72 | 1016.7 |
| 20260901060436 | 82 | 220 | 3.0 | 4.0 | 0.00 | 0.00 | 0.00 | 72 | 1016.7 |
| 20260901060020 | 82 | 216 | 2.0 | 4.0 | 0.00 | 0.00 | 0.00 | 72 | 1015.0 |
| 20260901055924 | 82 | 231 | 2.0 | 5.0 | 0.00 | 0.00 | 0.00 | 72 | 1016.7 |
| 20260901055426 | 82 | 222 | 2.0 | 5.0 | 0.00 | 0.00 | 0.00 | 71 | 1016.7 |
| 20260901054938 | 82 | 183 | 3.0 | 5.0 | 0.00 | 0.00 | 0.00 | 71 | 1016.6 |
| 20260901054532 | 82 | 213 | 2.0 | 5.0 | 0.00 | 0.00 | 0.00 | 71 | 1014.9 |
| 20260901054428 | 83 | 197 | 3.0 | 4.0 | 0.00 | 0.00 | 0.00 | 71 | 1016.7 |
| 20260901053930 | 83 | 219 | 2.0 | 4.0 | 0.00 | 0.00 | 0.00 | 71 | 1016.6 |
| 20260901053501 | 83 | 198 | 3.0 | 4.0 | 0.00 | 0.00 | 0.00 | 71 | 1016.6 |
| 20260901053015 | 82 | 224 | 2.0 | 4.0 | 0.00 | 0.00 | 0.00 | 71 | 1014.8 |
| 20260901052931 | 83 | 210 | 2.0 | 4.0 | 0.00 | 0.00 | 0.00 | 71 | 1016.6 |
| 20260901052443 | 83 | 186 | 3.0 | 6.0 | 0.00 | 0.00 | 0.00 | 71 | 1016.6 |
| 20260901051925 | 83 | 226 | 3.0 | 6.0 | 0.00 | 0.00 | 0.00 | 70 | 1016.6 |
| 20260901051523 | 82 | 223 | 3.0 | 6.0 | 0.00 | 0.00 | 0.00 | 70 | 1014.8 |
| 20260901051435 | 83 | 221 | 3.0 | 6.0 | 0.00 | 0.00 | 0.00 | 70 | 1016.6 |
| 20260901050922 | 83 | 193 | 4.0 | 6.0 | 0.00 | 0.00 | 0.00 | 70 | 1016.7 |
| 20260901050425 | 83 | 226 | 4.0 | 6.0 | 0.00 | 0.00 | 0.00 | 71 | 1016.6 |
| 20260901050007 | 82 | 186 | 3.0 | 6.0 | 0.00 | 0.00 | 0.00 | 70 | 1014.8 |
| 20260901045931 | 83 | 203 | 3.0 | 6.0 | 0.00 | 0.00 | 0.00 | 70 | 1016.6 |
| 20260901045442 | 83 | 200 | 4.0 | 5.0 | 0.00 | 0.00 | 0.00 | 71 | 1016.6 |
| 20260901044933 | 83 | 240 | 4.0 | 6.0 | 0.00 | 0.00 | 0.00 | 71 | 1016.6 |
| 20260901044557 | 82 | 195 | 3.0 | 6.0 | 0.00 | 0.00 | 0.00 | 71 | 1014.8 |
| 20260901044434 | 83 | 237 | 4.0 | 6.0 | 0.00 | 0.00 | 0.00 | 71 | 1016.6 |
| 20260901043925 | 83 | 227 | 3.0 | 5.0 | 0.00 | 0.00 | 0.00 | 71 | 1016.6 |
| 20260901043436 | 83 | 252 | 3.0 | 6.0 | 0.00 | 0.00 | 0.00 | 71 | 1016.5 |
| 20260901043046 | 82 | 252 | 3.0 | 7.0 | 0.00 | 0.00 | 0.00 | 70 | 1014.8 |
| 20260901042947 | 83 | 231 | 3.0 | 7.0 | 0.00 | 0.00 | 0.00 | 70 | 1016.6 |
| 20260901042447 | 83 | 227 | 3.0 | 7.0 | 0.00 | 0.00 | 0.00 | 70 | 1016.5 |
| 20260901041938 | 83 | 213 | 3.0 | 7.0 | 0.00 | 0.00 | 0.00 | 70 | 1016.5 |
| 20260901041532 | 83 | 239 | 3.0 | 7.0 | 0.00 | 0.00 | 0.00 | 70 | 1014.9 |
| 20260901041428 | 83 | 238 | 4.0 | 7.0 | 0.00 | 0.00 | 0.00 | 70 | 1016.6 |
| 20260901040931 | 83 | 227 | 3.0 | 7.0 | 0.00 | 0.00 | 0.00 | 69 | 1016.6 |
| 20260901040423 | 84 | 218 | 4.0 | 9.0 | 0.00 | 0.00 | 0.00 | 69 | 1016.5 |
| 20260901040041 | 83 | 256 | 4.0 | 10.0 | 0.00 | 0.00 | 0.00 | 69 | 1014.8 |
| 20260901035923 | 84 | 239 | 4.0 | 10.0 | 0.00 | 0.00 | 0.00 | 68 | 1016.5 |
| 20260901035441 | 84 | 181 | 4.0 | 10.0 | 0.00 | 0.00 | 0.00 | 68 | 1016.5 |
| 20260901034922 | 84 | 168 | 4.0 | 9.0 | 0.00 | 0.00 | 0.00 | 68 | 1016.4 |
| 20260901034530 | 84 | 219 | 4.0 | 9.0 | 0.00 | 0.00 | 0.00 | 68 | 1014.7 |
| 20260901034428 | 84 | 248 | 4.0 | 9.0 | 0.00 | 0.00 | 0.00 | 68 | 1016.5 |
| 20260901033931 | 84 | 217 | 5.0 | 9.0 | 0.00 | 0.00 | 0.00 | 68 | 1016.5 |
| 20260901033443 | 84 | 244 | 4.0 | 9.0 | 0.00 | 0.00 | 0.00 | 68 | 1016.5 |
| 20260901033011 | 84 | 175 | 4.0 | 8.0 | 0.00 | 0.00 | 0.00 | 68 | 1014.6 |
| 20260901032932 | 84 | 207 | 5.0 | 8.0 | 0.00 | 0.00 | 0.00 | 68 | 1016.4 |
| 20260901032443 | 84 | 199 | 4.0 | 8.0 | 0.00 | 0.00 | 0.00 | 68 | 1016.4 |
| 20260901031935 | 84 | 181 | 5.0 | 8.0 | 0.00 | 0.00 | 0.00 | 68 | 1016.5 |
| 20260901031612 | 84 | 237 | 4.0 | 8.0 | 0.00 | 0.00 | 0.00 | 68 | 1014.7 |
| 20260901031436 | 84 | 203 | 4.0 | 8.0 | 0.00 | 0.00 | 0.00 | 68 | 1016.5 |
| 20260901030927 | 84 | 248 | 5.0 | 8.0 | 0.00 | 0.00 | 0.00 | 67 | 1016.4 |
| 20260901030430 | 84 | 211 | 4.0 | 8.0 | 0.00 | 0.00 | 0.00 | 67 | 1016.5 |
| 20260901030016 | 84 | 252 | 4.0 | 7.0 | 0.00 | 0.00 | 0.00 | 67 | 1014.6 |
| 20260901025941 | 85 | 229 | 4.0 | 7.0 | 0.00 | 0.00 | 0.00 | 67 | 1016.4 |
| 20260901025430 | 85 | 243 | 3.0 | 7.0 | 0.00 | 0.00 | 0.00 | 66 | 1016.4 |
| 20260901024933 | 85 | 194 | 3.0 | 7.0 | 0.00 | 0.00 | 0.00 | 65 | 1016.3 |
| 20260901024521 | 85 | 220 | 3.0 | 7.0 | 0.00 | 0.00 | 0.00 | 65 | 1014.5 |
| 20260901024421 | 85 | 153 | 3.0 | 7.0 | 0.00 | 0.00 | 0.00 | 65 | 1016.3 |
| 20260901023933 | 85 | 186 | 3.0 | 7.0 | 0.00 | 0.00 | 0.00 | 64 | 1016.3 |
| 20260901023437 | 86 | 181 | 3.0 | 9.0 | 0.00 | 0.00 | 0.00 | 64 | 1016.2 |
| 20260901023021 | 85 | 241 | 3.0 | 9.0 | 0.00 | 0.00 | 0.00 | 64 | 1014.5 |
| 20260901022926 | 86 | 158 | 3.0 | 9.0 | 0.00 | 0.00 | 0.00 | 64 | 1016.2 |
| 20260901022453 | 86 | 264 | 3.0 | 6.0 | 0.00 | 0.00 | 0.00 | 63 | 1016.2 |
| 20260901021922 | 86 | 266 | 2.0 | 8.0 | 0.00 | 0.00 | 0.00 | 63 | 1016.2 |
| 20260901021548 | 86 | 263 | 2.0 | 8.0 | 0.00 | 0.00 | 0.00 | 62 | 1014.4 |
| 20260901021423 | 86 | 179 | 3.0 | 8.0 | 0.00 | 0.00 | 0.00 | 62 | 1016.1 |
| 20260901020934 | 86 | 225 | 3.0 | 8.0 | 0.00 | 0.00 | 0.00 | 62 | 1016.1 |
| 20260901020428 | 87 | 266 | 3.0 | 7.0 | 0.00 | 0.00 | 0.00 | 62 | 1016.1 |
| 20260901020055 | 86 | 192 | 3.0 | 7.0 | 0.00 | 0.00 | 0.00 | 62 | 1014.2 |
| 20260901015928 | 87 | 222 | 2.0 | 7.0 | 0.00 | 0.00 | 0.00 | 62 | 1016.0 |
| 20260901015439 | 87 | 192 | 2.0 | 7.0 | 0.00 | 0.00 | 0.00 | 61 | 1015.9 |
| 20260901014950 | 87 | 247 | 2.0 | 6.0 | 0.00 | 0.00 | 0.00 | 61 | 1015.9 |
| 20260901014602 | 86 | 224 | 2.0 | 6.0 | 0.00 | 0.00 | 0.00 | 61 | 1014.1 |
| 20260901014431 | 87 | 195 | 2.0 | 6.0 | 0.00 | 0.00 | 0.00 | 61 | 1015.8 |
| 20260901013922 | 87 | 212 | 2.0 | 7.0 | 0.00 | 0.00 | 0.00 | 61 | 1015.8 |
| 20260901013424 | 87 | 244 | 2.0 | 7.0 | 0.00 | 0.00 | 0.00 | 60 | 1015.7 |
| 20260901013111 | 87 | 234 | 2.0 | 6.0 | 0.00 | 0.00 | 0.00 | 60 | 1013.9 |
| 20260901012945 | 87 | 167 | 3.0 | 6.0 | 0.00 | 0.00 | 0.00 | 60 | 1015.7 |
| 20260901012424 | 87 | 203 | 2.0 | 5.0 | 0.00 | 0.00 | 0.00 | 60 | 1015.7 |
| 20260901011955 | 87 | 196 | 2.0 | 6.0 | 0.00 | 0.00 | 0.00 | 60 | 1015.6 |
| 20260901011535 | 87 | 213 | 3.0 | 6.0 | 0.00 | 0.00 | 0.00 | 60 | 1013.8 |
| 20260901011446 | 87 | 216 | 4.0 | 6.0 | 0.00 | 0.00 | 0.00 | 60 | 1015.6 |
| 20260901010928 | 87 | 293 | 3.0 | 8.0 | 0.00 | 0.00 | 0.00 | 60 | 1015.6 |
| 20260901010435 | 88 | 204 | 2.0 | 5.0 | 0.00 | 0.00 | 0.00 | 60 | 1015.6 |
| 20260901010044 | 87 | 214 | 1.0 | 7.0 | 0.00 | 0.00 | 0.00 | 60 | 1013.7 |
| 20260901005947 | 88 | 195 | 1.0 | 7.0 | 0.00 | 0.00 | 0.00 | 60 | 1015.6 |
| 20260901005428 | 88 | 255 | 2.0 | 7.0 | 0.00 | 0.00 | 0.00 | 60 | 1015.5 |
| 20260901004940 | 88 | 223 | 2.0 | 5.0 | 0.00 | 0.00 | 0.00 | 60 | 1015.5 |
| 20260901004551 | 88 | 165 | 1.0 | 5.0 | 0.00 | 0.00 | 0.00 | 60 | 1013.7 |
| 20260901004421 | 88 | 272 | 2.0 | 7.0 | 0.00 | 0.00 | 0.00 | 60 | 1015.6 |
| 20260901003933 | 89 | 266 | 2.0 | 7.0 | 0.00 | 0.00 | 0.00 | 59 | 1015.5 |
| 20260901003444 | 89 | 151 | 1.0 | 6.0 | 0.00 | 0.00 | 0.00 | 59 | 1015.6 |
| 20260901003037 | 89 | 260 | 0.0 | 6.0 | 0.00 | 0.00 | 0.00 | 58 | 1013.6 |
| 20260901002929 | 89 | 252 | 2.0 | 6.0 | 0.00 | 0.00 | 0.00 | 58 | 1015.5 |
| 20260901002432 | 90 | 200 | 2.0 | 6.0 | 0.00 | 0.00 | 0.00 | 57 | 1015.5 |
| 20260901001923 | 90 | 200 | 2.0 | 5.0 | 0.00 | 0.00 | 0.00 | 57 | 1015.5 |
| 20260901001542 | 90 | 215 | 1.0 | 6.0 | 0.00 | 0.00 | 0.00 | 56 | 1013.6 |
| 20260901001453 | 90 | 208 | 1.0 | 6.0 | 0.00 | 0.00 | 0.00 | 56 | 1015.4 |
| 20260901000922 | 90 | 193 | 2.0 | 6.0 | 0.00 | 0.00 | 0.00 | 55 | 1015.4 |
| 20260901000454 | 91 | 188 | 1.0 | 6.0 | 0.00 | 0.00 | 0.00 | 55 | 1015.4 |
| 20260901000050 | 90 | 208 | 1.0 | 6.0 | 0.00 | 0.00 | 0.00 | 54 | 1013.5 |
| 20260831235933 | 91 | 243 | 1.0 | 6.0 | 0.00 | 0.00 | 0.00 | 54 | 1015.4 |
| 20260831235421 | 91 | 225 | 3.0 | 6.0 | 0.00 | 0.00 | 0.00 | 53 | 1015.3 |
| 20260831234926 | 91 | 239 | 2.0 | 8.0 | 0.00 | 0.00 | 0.00 | 53 | 1015.4 |
| 20260831234553 | 91 | 267 | 3.0 | 8.0 | 0.00 | 0.00 | 0.00 | 52 | 1013.6 |
| 20260831234428 | 92 | 182 | 3.0 | 8.0 | 0.00 | 0.00 | 0.00 | 52 | 1015.4 |
| 20260831233940 | 92 | 258 | 2.0 | 11.0 | 0.00 | 0.00 | 0.00 | 52 | 1015.4 |
| 20260831233449 | 92 | 250 | 2.0 | 11.0 | 0.00 | 0.00 | 0.00 | 51 | 1015.3 |
| 20260831233059 | 92 | 198 | 4.0 | 10.0 | 0.00 | 0.00 | 0.00 | 51 | 1013.5 |
| 20260831232930 | 92 | 207 | 3.0 | 7.0 | 0.00 | 0.00 | 0.00 | 51 | 1015.4 |
| 20260831232422 | 92 | 137 | 4.0 | 10.0 | 0.00 | 0.00 | 0.00 | 50 | 1015.4 |
| 20260831231955 | 93 | 212 | 5.0 | 10.0 | 0.00 | 0.00 | 0.00 | 50 | 1015.4 |
| 20260831231554 | 92 | 221 | 1.0 | 8.0 | 0.00 | 0.00 | 0.00 | 50 | 1013.5 |
| 20260831231446 | 93 | 245 | 1.0 | 8.0 | 0.00 | 0.00 | 0.00 | 50 | 1015.3 |
| 20260831230926 | 93 | 248 | 2.0 | 8.0 | 0.00 | 0.00 | 0.00 | 50 | 1015.3 |
| 20260831230436 | 93 | 235 | 3.0 | 6.0 | 0.00 | 0.00 | 0.00 | 49 | 1015.4 |
| 20260831230048 | 93 | 155 | 2.0 | 7.0 | 0.00 | 0.00 | 0.00 | 48 | 1013.6 |
| 20260831225947 | 93 | 165 | 2.0 | 7.0 | 0.00 | 0.00 | 0.00 | 49 | 1015.4 |
| 20260831225435 | 93 | 255 | 3.0 | 7.0 | 0.00 | 0.00 | 0.00 | 49 | 1015.4 |
| 20260831225007 | 94 | 237 | 3.0 | 9.0 | 0.00 | 0.00 | 0.00 | 49 | 1015.4 |
| 20260831224614 | 93 | 229 | 2.0 | 10.0 | 0.00 | 0.00 | 0.00 | 48 | 1013.6 |
| 20260831224442 | 94 | 195 | 4.0 | 10.0 | 0.00 | 0.00 | 0.00 | 47 | 1015.3 |
| 20260831223932 | 94 | 212 | 5.0 | 10.0 | 0.00 | 0.00 | 0.00 | 47 | 1015.4 |
| 20260831223422 | 94 | 239 | 3.0 | 9.0 | 0.00 | 0.00 | 0.00 | 47 | 1015.4 |
| 20260831223050 | 94 | 243 | 1.0 | 10.0 | 0.00 | 0.00 | 0.00 | 47 | 1013.6 |
| 20260831222932 | 95 | 248 | 2.0 | 10.0 | 0.00 | 0.00 | 0.00 | 47 | 1015.4 |
| 20260831222435 | 94 | 220 | 1.0 | 6.0 | 0.00 | 0.00 | 0.00 | 47 | 1015.4 |
| 20260831221926 | 95 | 53 | 1.0 | 5.0 | 0.00 | 0.00 | 0.00 | 46 | 1015.6 |
| 20260831221542 | 94 | 103 | 1.0 | 10.0 | 0.00 | 0.00 | 0.00 | 46 | 1013.9 |
| 20260831221435 | 95 | 129 | 2.0 | 10.0 | 0.00 | 0.00 | 0.00 | 46 | 1015.6 |
| 20260831221006 | 95 | 216 | 3.0 | 10.0 | 0.00 | 0.00 | 0.00 | 45 | 1015.7 |
| 20260831220427 | 96 | 224 | 1.0 | 5.0 | 0.00 | 0.00 | 0.00 | 45 | 1015.6 |
| 20260831220020 | 95 | 198 | 3.0 | 7.0 | 0.00 | 0.00 | 0.00 | 45 | 1013.9 |
| 20260831215937 | 96 | 191 | 3.0 | 7.0 | 0.00 | 0.00 | 0.00 | 44 | 1015.6 |
| 20260831215449 | 96 | 174 | 3.0 | 10.0 | 0.00 | 0.00 | 0.00 | 45 | 1015.7 |
| 20260831214930 | 95 | 160 | 5.0 | 10.0 | 0.00 | 0.00 | 0.00 | 45 | 1015.8 |
| 20260831214508 | 95 | 241 | 3.0 | 8.0 | 0.00 | 0.00 | 0.00 | 44 | 1014.0 |
| 20260831214420 | 96 | 214 | 4.0 | 8.0 | 0.00 | 0.00 | 0.00 | 45 | 1015.7 |
| 20260831213932 | 96 | 240 | 4.0 | 8.0 | 0.00 | 0.00 | 0.00 | 44 | 1015.7 |
| 20260831213537 | 97 | 228 | 4.0 | 6.0 | 0.00 | 0.00 | 0.00 | 42 | 1015.6 |
| 20260831213004 | 97 | 276 | 0.0 | 8.0 | 0.00 | 0.00 | 0.00 | 42 | 1013.9 |
| 20260831212933 | 97 | 236 | 1.0 | 8.0 | 0.00 | 0.00 | 0.00 | 42 | 1015.7 |
| 20260831212438 | 97 | 241 | 3.0 | 8.0 | 0.00 | 0.00 | 0.00 | 42 | 1015.8 |
| 20260831211930 | 97 | 251 | 3.0 | 9.0 | 0.00 | 0.00 | 0.00 | 42 | 1015.8 |
| 20260831211606 | 97 | 193 | 5.0 | 9.0 | 0.00 | 0.00 | 0.00 | 42 | 1014.0 |
| 20260831211431 | 97 | 236 | 3.0 | 8.0 | 0.00 | 0.00 | 0.00 | 42 | 1015.9 |
| 20260831210942 | 97 | 148 | 3.0 | 8.0 | 0.00 | 0.00 | 0.00 | 41 | 1015.9 |
| 20260831210453 | 97 | 217 | 3.0 | 8.0 | 0.00 | 0.00 | 0.00 | 40 | 1015.8 |
| 20260831210042 | 97 | 204 | 2.0 | 6.0 | 0.00 | 0.00 | 0.00 | 38 | 1014.1 |
| 20260831210004 | 97 | 234 | 3.0 | 6.0 | 0.00 | 0.00 | 0.00 | 38 | 1015.9 |
| 20260831205422 | 97 | 217 | 3.0 | 9.0 | 0.00 | 0.00 | 0.00 | 37 | 1016.0 |
| 20260831204935 | 98 | 165 | 4.0 | 9.0 | 0.00 | 0.00 | 0.00 | 38 | 1016.1 |
| 20260831204526 | 97 | 244 | 3.0 | 6.0 | 0.00 | 0.00 | 0.00 | 37 | 1014.3 |
| 20260831204425 | 98 | 227 | 3.0 | 6.0 | 0.00 | 0.00 | 0.00 | 37 | 1016.1 |
| 20260831203927 | 98 | 272 | 2.0 | 4.0 | 0.00 | 0.00 | 0.00 | 37 | 1016.2 |
| 20260831203440 | 97 | 238 | 3.0 | 8.0 | 0.00 | 0.00 | 0.00 | 38 | 1016.2 |
| 20260831203041 | 96 | 307 | 3.0 | 8.0 | 0.00 | 0.00 | 0.00 | 38 | 1014.4 |
| 20260831202929 | 97 | 186 | 4.0 | 8.0 | 0.00 | 0.00 | 0.00 | 37 | 1016.3 |
| 20260831202432 | 97 | 237 | 4.0 | 7.0 | 0.00 | 0.00 | 0.00 | 36 | 1016.3 |
| 20260831201923 | 97 | 246 | 4.0 | 8.0 | 0.00 | 0.00 | 0.00 | 36 | 1016.4 |
| 20260831201541 | 97 | 256 | 2.0 | 8.0 | 0.00 | 0.00 | 0.00 | 36 | 1014.6 |
| 20260831201424 | 97 | 238 | 3.0 | 8.0 | 0.00 | 0.00 | 0.00 | 37 | 1016.4 |
| 20260831200936 | 97 | 257 | 3.0 | 7.0 | 0.00 | 0.00 | 0.00 | 38 | 1016.4 |
| 20260831200427 | 97 | 245 | 3.0 | 7.0 | 0.00 | 0.00 | 0.00 | 39 | 1016.4 |
| 20260831200048 | 97 | 247 | 1.0 | 5.0 | 0.00 | 0.00 | 0.00 | 40 | 1014.7 |
| 20260831195924 | 97 | 243 | 1.0 | 5.0 | 0.00 | 0.00 | 0.00 | 40 | 1016.5 |
| 20260831195436 | 97 | 213 | 2.0 | 8.0 | 0.00 | 0.00 | 0.00 | 41 | 1016.5 |
| 20260831194930 | 97 | 252 | 4.0 | 7.0 | 0.00 | 0.00 | 0.00 | 41 | 1016.6 |
| 20260831194647 | 96 | 258 | 2.0 | 7.0 | 0.00 | 0.00 | 0.00 | 41 | 1014.9 |
| 20260831194429 | 97 | 243 | 4.0 | 7.0 | 0.00 | 0.00 | 0.00 | 41 | 1016.7 |
| 20260831193940 | 96 | 229 | 2.0 | 8.0 | 0.00 | 0.00 | 0.00 | 41 | 1016.7 |
| 20260831193452 | 96 | 156 | 2.0 | 10.0 | 0.00 | 0.00 | 0.00 | 42 | 1016.9 |
| 20260831193044 | 96 | 217 | 4.0 | 10.0 | 0.00 | 0.00 | 0.00 | 41 | 1015.1 |
| 20260831192942 | 96 | 215 | 2.0 | 8.0 | 0.00 | 0.00 | 0.00 | 42 | 1016.8 |
| 20260831192423 | 96 | 158 | 3.0 | 6.0 | 0.00 | 0.00 | 0.00 | 40 | 1017.0 |
| 20260831191932 | 97 | 235 | 3.0 | 11.0 | 0.00 | 0.00 | 0.00 | 40 | 1017.0 |
| 20260831191529 | 97 | 211 | 4.0 | 11.0 | 0.00 | 0.00 | 0.00 | 39 | 1015.2 |
| 20260831191442 | 97 | 197 | 4.0 | 11.0 | 0.00 | 0.00 | 0.00 | 40 | 1017.0 |
| 20260831190932 | 97 | 242 | 4.0 | 6.0 | 0.00 | 0.00 | 0.00 | 41 | 1017.1 |
| 20260831190504 | 97 | 248 | 3.0 | 6.0 | 0.00 | 0.00 | 0.00 | 42 | 1017.1 |
| 20260831190106 | 96 | 216 | 1.0 | 6.0 | 0.00 | 0.00 | 0.00 | 42 | 1015.3 |
| 20260831185922 | 97 | 207 | 1.0 | 6.0 | 0.00 | 0.00 | 0.00 | 42 | 1017.1 |
| 20260831185434 | 97 | 167 | 1.0 | 6.0 | 0.00 | 0.00 | 0.00 | 41 | 1017.2 |
| 20260831184940 | 97 | 244 | 4.0 | 6.0 | 0.00 | 0.00 | 0.00 | 42 | 1017.2 |
| 20260831184546 | 96 | 240 | 3.0 | 6.0 | 0.00 | 0.00 | 0.00 | 43 | 1015.4 |
| 20260831184451 | 96 | 210 | 2.0 | 6.0 | 0.00 | 0.00 | 0.00 | 42 | 1017.2 |
| 20260831183933 | 96 | 240 | 4.0 | 7.0 | 0.00 | 0.00 | 0.00 | 42 | 1017.4 |
| 20260831183426 | 97 | 238 | 4.0 | 7.0 | 0.00 | 0.00 | 0.00 | 42 | 1017.4 |
| 20260831183052 | 97 | 269 | 4.0 | 7.0 | 0.00 | 0.00 | 0.00 | 42 | 1015.7 |
| 20260831182954 | 98 | 243 | 5.0 | 7.0 | 0.00 | 0.00 | 0.00 | 41 | 1017.5 |
| 20260831182506 | 98 | 169 | 2.0 | 4.0 | 0.00 | 0.00 | 0.00 | 43 | 1017.6 |
| 20260831181924 | 96 | 230 | 2.0 | 7.0 | 0.00 | 0.00 | 0.00 | 44 | 1017.7 |
| 20260831181520 | 95 | 257 | 1.0 | 10.0 | 0.00 | 0.00 | 0.00 | 43 | 1016.0 |
| 20260831181434 | 96 | 278 | 1.0 | 10.0 | 0.00 | 0.00 | 0.00 | 43 | 1017.7 |
| 20260831180945 | 97 | 240 | 4.0 | 10.0 | 0.00 | 0.00 | 0.00 | 38 | 1017.8 |
| 20260831180428 | 96 | 178 | 1.0 | 6.0 | 0.00 | 0.00 | 0.00 | 44 | 1017.9 |
| 20260831180023 | 95 | 295 | 2.0 | 7.0 | 0.00 | 0.00 | 0.00 | 44 | 1016.2 |
| 20260831175937 | 96 | 259 | 3.0 | 7.0 | 0.00 | 0.00 | 0.00 | 43 | 1018.0 |
| 20260831175448 | 95 | 243 | 3.0 | 7.0 | 0.00 | 0.00 | 0.00 | 45 | 1017.9 |
| 20260831174950 | 96 | 238 | 4.0 | 7.0 | 0.00 | 0.00 | 0.00 | 45 | 1017.9 |
| 20260831174509 | 95 | 219 | 1.0 | 7.0 | 0.00 | 0.00 | 0.00 | 46 | 1016.3 |
| 20260831174442 | 96 | 278 | 2.0 | 7.0 | 0.00 | 0.00 | 0.00 | 45 | 1018.1 |
| 20260831173929 | 96 | 238 | 2.0 | 5.0 | 0.00 | 0.00 | 0.00 | 48 | 1018.1 |
| 20260831173428 | 94 | 292 | 1.0 | 8.0 | 0.00 | 0.00 | 0.00 | 47 | 1018.1 |
| 20260831173009 | 94 | 251 | 4.0 | 8.0 | 0.00 | 0.00 | 0.00 | 47 | 1016.4 |
| 20260831172935 | 94 | 245 | 4.0 | 8.0 | 0.00 | 0.00 | 0.00 | 47 | 1018.2 |
| 20260831172445 | 95 | 193 | 4.0 | 8.0 | 0.00 | 0.00 | 0.00 | 47 | 1018.2 |
| 20260831171936 | 94 | 230 | 4.0 | 8.0 | 0.00 | 0.00 | 0.00 | 48 | 1018.3 |
| 20260831171558 | 94 | 189 | 2.0 | 8.0 | 0.00 | 0.00 | 0.00 | 49 | 1016.5 |
| 20260831171436 | 94 | 237 | 3.0 | 8.0 | 0.00 | 0.00 | 0.00 | 49 | 1018.3 |
| 20260831170927 | 94 | 250 | 4.0 | 8.0 | 0.00 | 0.00 | 0.00 | 50 | 1018.3 |
| 20260831170458 | 94 | 228 | 3.0 | 8.0 | 0.00 | 0.00 | 0.00 | 48 | 1018.4 |
| 20260831170124 | 93 | 245 | 2.0 | 8.0 | 0.00 | 0.00 | 0.00 | 49 | 1016.7 |
| 20260831165949 | 94 | 240 | 4.0 | 8.0 | 0.00 | 0.00 | 0.00 | 51 | 1018.4 |
| 20260831165430 | 93 | 230 | 3.0 | 7.0 | 0.00 | 0.00 | 0.00 | 51 | 1018.5 |
| 20260831164943 | 92 | 269 | 3.0 | 7.0 | 0.00 | 0.00 | 0.00 | 51 | 1018.5 |
| 20260831164551 | 92 | 243 | 4.0 | 8.0 | 0.00 | 0.00 | 0.00 | 52 | 1016.8 |
| 20260831164423 | 92 | 241 | 3.0 | 8.0 | 0.00 | 0.00 | 0.00 | 51 | 1018.6 |
| 20260831163931 | 92 | 192 | 5.0 | 8.0 | 0.00 | 0.00 | 0.00 | 51 | 1018.6 |
| 20260831163443 | 92 | 229 | 4.0 | 7.0 | 0.00 | 0.00 | 0.00 | 51 | 1018.6 |
| 20260831163055 | 92 | 238 | 4.0 | 7.0 | 0.00 | 0.00 | 0.00 | 52 | 1016.8 |
| 20260831162923 | 92 | 258 | 4.0 | 6.0 | 0.00 | 0.00 | 0.00 | 52 | 1018.6 |
| 20260831162435 | 92 | 238 | 3.0 | 6.0 | 0.00 | 0.00 | 0.00 | 54 | 1018.5 |
| 20260831161947 | 92 | 236 | 4.0 | 6.0 | 0.00 | 0.00 | 0.00 | 54 | 1018.6 |
| 20260831161614 | 91 | 241 | 3.0 | 6.0 | 0.00 | 0.00 | 0.00 | 54 | 1016.8 |
| 20260831161427 | 92 | 259 | 3.0 | 6.0 | 0.00 | 0.00 | 0.00 | 55 | 1018.6 |
| 20260831160935 | 91 | 259 | 2.0 | 6.0 | 0.00 | 0.00 | 0.00 | 55 | 1018.5 |
| 20260831160425 | 90 | 246 | 2.0 | 7.0 | 0.00 | 0.00 | 0.00 | 57 | 1018.6 |
| 20260831160049 | 89 | 269 | 4.0 | 8.0 | 0.00 | 0.00 | 0.00 | 56 | 1016.9 |
| 20260831155925 | 90 | 250 | 5.0 | 8.0 | 0.00 | 0.00 | 0.00 | 56 | 1018.6 |
| 20260831155436 | 90 | 229 | 4.0 | 8.0 | 0.00 | 0.00 | 0.00 | 58 | 1018.7 |
| 20260831154928 | 89 | 219 | 3.0 | 6.0 | 0.00 | 0.00 | 0.00 | 59 | 1018.7 |
| 20260831154608 | 89 | 242 | 4.0 | 6.0 | 0.00 | 0.00 | 0.00 | 59 | 1016.9 |
| 20260831154428 | 89 | 250 | 4.0 | 6.0 | 0.00 | 0.00 | 0.00 | 59 | 1018.7 |
| 20260831153940 | 88 | 256 | 2.0 | 6.0 | 0.00 | 0.00 | 0.00 | 62 | 1018.7 |
| 20260831153452 | 88 | 245 | 3.0 | 6.0 | 0.00 | 0.00 | 0.00 | 62 | 1018.8 |
| 20260831153103 | 87 | 248 | 3.0 | 6.0 | 0.00 | 0.00 | 0.00 | 62 | 1017.1 |
| 20260831152933 | 88 | 240 | 4.0 | 6.0 | 0.00 | 0.00 | 0.00 | 62 | 1018.8 |
| 20260831152425 | 88 | 174 | 2.0 | 5.0 | 0.00 | 0.00 | 0.00 | 63 | 1018.8 |
| 20260831151927 | 87 | 248 | 2.0 | 5.0 | 0.00 | 0.00 | 0.00 | 64 | 1018.9 |
| 20260831151510 | 87 | 250 | 0.0 | 5.0 | 0.00 | 0.00 | 0.00 | 65 | 1017.1 |
| 20260831151436 | 87 | 233 | 1.0 | 5.0 | 0.00 | 0.00 | 0.00 | 65 | 1018.8 |
| 20260831150927 | 87 | 248 | 1.0 | 4.0 | 0.00 | 0.00 | 0.00 | 66 | 1018.7 |
| 20260831150430 | 86 | 245 | 3.0 | 4.0 | 0.00 | 0.00 | 0.00 | 67 | 1018.7 |
| 20260831150020 | 85 | 245 | 1.0 | 4.0 | 0.00 | 0.00 | 0.00 | 67 | 1017.0 |
| 20260831145942 | 86 | 245 | 2.0 | 4.0 | 0.00 | 0.00 | 0.00 | 67 | 1018.7 |
| 20260831145422 | 85 | 229 | 2.0 | 3.0 | 0.00 | 0.00 | 0.00 | 69 | 1018.7 |
| 20260831144934 | 85 | 257 | 1.0 | 3.0 | 0.00 | 0.00 | 0.00 | 69 | 1018.6 |
| 20260831144526 | 84 | 279 | 1.0 | 3.0 | 0.00 | 0.00 | 0.00 | 69 | 1017.0 |
| 20260831144422 | 85 | 283 | 2.0 | 3.0 | 0.00 | 0.00 | 0.00 | 70 | 1018.7 |
| 20260831143925 | 84 | 234 | 1.0 | 4.0 | 0.00 | 0.00 | 0.00 | 71 | 1018.6 |
| 20260831143433 | 83 | 266 | 2.0 | 4.0 | 0.00 | 0.00 | 0.00 | 71 | 1018.5 |
| 20260831143027 | 83 | 258 | 0.0 | 3.0 | 0.00 | 0.00 | 0.00 | 72 | 1016.8 |
| 20260831142923 | 83 | 271 | 0.0 | 3.0 | 0.00 | 0.00 | 0.00 | 72 | 1018.5 |
| 20260831142425 | 82 | 257 | 2.0 | 3.0 | 0.00 | 0.00 | 0.00 | 72 | 1018.6 |
| 20260831141936 | 82 | 276 | 1.0 | 3.0 | 0.00 | 0.00 | 0.00 | 73 | 1018.5 |
| 20260831141535 | 81 | 288 | 1.0 | 3.0 | 0.00 | 0.00 | 0.00 | 73 | 1016.9 |
| 20260831141447 | 81 | 195 | 1.0 | 3.0 | 0.00 | 0.00 | 0.00 | 74 | 1018.6 |
| 20260831140928 | 81 | 207 | 0.0 | 2.0 | 0.00 | 0.00 | 0.00 | 74 | 1018.5 |
| 20260831140440 | 80 | 225 | 1.0 | 2.0 | 0.00 | 0.00 | 0.00 | 75 | 1018.5 |
| 20260831140042 | 80 | 236 | 1.0 | 2.0 | 0.00 | 0.00 | 0.00 | 75 | 1016.8 |
| 20260831135921 | 80 | 236 | 1.0 | 2.0 | 0.00 | 0.00 | 0.00 | 75 | 1018.5 |
| 20260831135433 | 80 | 233 | 1.0 | 2.0 | 0.00 | 0.00 | 0.00 | 75 | 1018.4 |
| 20260831134925 | 79 | 226 | 1.0 | 4.0 | 0.00 | 0.00 | 0.00 | 75 | 1018.4 |
| 20260831134552 | 78 | 50 | 1.0 | 4.0 | 0.00 | 0.00 | 0.00 | 75 | 1016.7 |
| 20260831134426 | 79 | 235 | 1.0 | 4.0 | 0.00 | 0.00 | 0.00 | 75 | 1018.3 |
| 20260831133938 | 78 | 223 | 1.0 | 4.0 | 0.00 | 0.00 | 0.00 | 76 | 1018.2 |
| 20260831133448 | 78 | 240 | 2.0 | 3.0 | 0.00 | 0.00 | 0.00 | 76 | 1018.2 |
| 20260831133101 | 78 | 238 | 2.0 | 3.0 | 0.00 | 0.00 | 0.00 | 76 | 1016.5 |
| 20260831133001 | 78 | 237 | 3.0 | 3.0 | 0.00 | 0.00 | 0.00 | 76 | 1018.2 |
| 20260831132441 | 78 | 236 | 3.0 | 4.0 | 0.00 | 0.00 | 0.00 | 76 | 1018.1 |
| 20260831131933 | 78 | 233 | 3.0 | 4.0 | 0.00 | 0.00 | 0.00 | 76 | 1018.1 |
| 20260831131547 | 77 | 248 | 2.0 | 4.0 | 0.00 | 0.00 | 0.00 | 76 | 1016.5 |
| 20260831131441 | 77 | 239 | 3.0 | 4.0 | 0.00 | 0.00 | 0.00 | 76 | 1018.1 |
| 20260831130921 | 77 | 240 | 3.0 | 4.0 | 0.00 | 0.00 | 0.00 | 76 | 1018.0 |
| 20260831130432 | 77 | 230 | 3.0 | 4.0 | 0.00 | 0.00 | 0.00 | 76 | 1017.9 |
| 20260831130051 | 76 | 238 | 2.0 | 5.0 | 0.00 | 0.00 | 0.00 | 76 | 1016.2 |
| 20260831125928 | 77 | 233 | 3.0 | 5.0 | 0.00 | 0.00 | 0.00 | 76 | 1017.9 |
| 20260831125438 | 77 | 236 | 3.0 | 5.0 | 0.00 | 0.00 | 0.00 | 76 | 1017.8 |
| 20260831124930 | 76 | 233 | 4.0 | 5.0 | 0.00 | 0.00 | 0.00 | 76 | 1017.8 |
| 20260831124541 | 76 | 236 | 3.0 | 4.0 | 0.00 | 0.00 | 0.00 | 76 | 1016.1 |
| 20260831124502 | 76 | 238 | 4.0 | 4.0 | 0.00 | 0.00 | 0.00 | 76 | 1017.7 |
| 20260831123950 | 76 | 238 | 4.0 | 4.0 | 0.00 | 0.00 | 0.00 | 76 | 1017.7 |
| 20260831123433 | 76 | 238 | 4.0 | 4.0 | 0.00 | 0.00 | 0.00 | 75 | 1017.7 |
| 20260831123024 | 76 | 238 | 3.0 | 4.0 | 0.00 | 0.00 | 0.00 | 75 | 1016.1 |
| 20260831122923 | 76 | 238 | 3.0 | 4.0 | 0.00 | 0.00 | 0.00 | 75 | 1017.6 |
| 20260831122424 | 76 | 240 | 4.0 | 4.0 | 0.00 | 0.00 | 0.00 | 75 | 1017.6 |
| 20260831121936 | 76 | 238 | 4.0 | 4.0 | 0.00 | 0.00 | 0.00 | 75 | 1017.6 |
| 20260831121530 | 75 | 239 | 3.0 | 4.0 | 0.00 | 0.00 | 0.00 | 75 | 1015.8 |
| 20260831121426 | 76 | 239 | 4.0 | 4.0 | 0.00 | 0.00 | 0.00 | 75 | 1017.5 |
| 20260831120927 | 76 | 238 | 4.0 | 5.0 | 0.00 | 0.00 | 0.00 | 75 | 1017.4 |
| 20260831120439 | 76 | 241 | 4.0 | 5.0 | 0.00 | 0.00 | 0.00 | 74 | 1017.3 |
| 20260831120039 | 76 | 240 | 3.0 | 5.0 | 0.00 | 0.00 | 0.00 | 74 | 1015.6 |
| 20260831115951 | 76 | 238 | 4.0 | 5.0 | 0.00 | 0.00 | 0.00 | 74 | 1017.2 |
| 20260831115431 | 76 | 239 | 4.0 | 5.0 | 0.00 | 0.00 | 0.00 | 73 | 1017.2 |
| 20260831114924 | 76 | 237 | 4.0 | 5.0 | 0.00 | 0.00 | 0.00 | 74 | 1017.2 |
| 20260831114546 | 76 | 240 | 4.0 | 5.0 | 0.00 | 0.00 | 0.00 | 73 | 1015.5 |
| 20260831114425 | 76 | 238 | 4.0 | 5.0 | 0.00 | 0.00 | 0.00 | 73 | 1017.1 |
| 20260831113937 | 76 | 238 | 4.0 | 5.0 | 0.00 | 0.00 | 0.00 | 73 | 1017.1 |
| 20260831113428 | 76 | 238 | 4.0 | 5.0 | 0.00 | 0.00 | 0.00 | 73 | 1017.0 |
| 20260831113100 | 76 | 239 | 3.0 | 5.0 | 0.00 | 0.00 | 0.00 | 73 | 1015.3 |
| 20260831112925 | 76 | 240 | 4.0 | 5.0 | 0.00 | 0.00 | 0.00 | 73 | 1017.0 |
| 20260831112437 | 76 | 235 | 4.0 | 4.0 | 0.00 | 0.00 | 0.00 | 73 | 1016.9 |
| 20260831111948 | 76 | 239 | 4.0 | 4.0 | 0.00 | 0.00 | 0.00 | 72 | 1016.9 |
| 20260831111614 | 76 | 238 | 3.0 | 4.0 | 0.00 | 0.00 | 0.00 | 72 | 1015.3 |
| 20260831111428 | 76 | 238 | 3.0 | 4.0 | 0.00 | 0.00 | 0.00 | 72 | 1016.8 |
| 20260831110939 | 76 | 240 | 3.0 | 4.0 | 0.00 | 0.00 | 0.00 | 72 | 1016.8 |
| 20260831110452 | 77 | 240 | 4.0 | 4.0 | 0.00 | 0.00 | 0.00 | 71 | 1016.8 |
| 20260831110044 | 76 | 240 | 3.0 | 5.0 | 0.00 | 0.00 | 0.00 | 71 | 1015.2 |
| 20260831105928 | 77 | 240 | 3.0 | 5.0 | 0.00 | 0.00 | 0.00 | 71 | 1016.8 |
| 20260831105439 | 77 | 239 | 4.0 | 5.0 | 0.00 | 0.00 | 0.00 | 71 | 1016.7 |
| 20260831104931 | 77 | 239 | 4.0 | 6.0 | 0.00 | 0.00 | 0.00 | 71 | 1016.7 |
| 20260831104551 | 76 | 243 | 4.0 | 6.0 | 0.00 | 0.00 | 0.00 | 72 | 1015.0 |
| 20260831104431 | 77 | 239 | 4.0 | 6.0 | 0.00 | 0.00 | 0.00 | 72 | 1016.6 |
| 20260831103922 | 76 | 238 | 5.0 | 5.0 | 0.00 | 0.00 | 0.00 | 72 | 1016.7 |
| 20260831103435 | 76 | 239 | 4.0 | 4.0 | 0.00 | 0.00 | 0.00 | 72 | 1016.6 |
| 20260831103107 | 76 | 239 | 3.0 | 4.0 | 0.00 | 0.00 | 0.00 | 71 | 1015.0 |
| 20260831102936 | 76 | 240 | 3.0 | 4.0 | 0.00 | 0.00 | 0.00 | 71 | 1016.6 |
| 20260831102428 | 76 | 240 | 3.0 | 4.0 | 0.00 | 0.00 | 0.00 | 71 | 1016.5 |
| 20260831102000 | 76 | 245 | 3.0 | 4.0 | 0.00 | 0.00 | 0.00 | 71 | 1016.5 |
| 20260831101555 | 76 | 244 | 3.0 | 5.0 | 0.00 | 0.00 | 0.00 | 71 | 1014.8 |
| 20260831101427 | 76 | 249 | 4.0 | 5.0 | 0.00 | 0.00 | 0.00 | 71 | 1016.5 |
| 20260831100954 | 76 | 245 | 4.0 | 5.0 | 0.00 | 0.00 | 0.00 | 72 | 1016.4 |
| 20260831100436 | 76 | 240 | 4.0 | 4.0 | 0.00 | 0.00 | 0.00 | 72 | 1016.4 |
| 20260831100015 | 75 | 240 | 3.0 | 4.0 | 0.00 | 0.00 | 0.00 | 72 | 1014.7 |
| 20260831095926 | 76 | 240 | 3.0 | 4.0 | 0.00 | 0.00 | 0.00 | 72 | 1016.4 |
| 20260831095438 | 76 | 240 | 3.0 | 4.0 | 0.00 | 0.00 | 0.00 | 72 | 1016.4 |
| 20260831094941 | 76 | 237 | 4.0 | 4.0 | 0.00 | 0.00 | 0.00 | 73 | 1016.3 |
| 20260831094528 | 75 | 238 | 3.0 | 4.0 | 0.00 | 0.00 | 0.00 | 73 | 1014.7 |
| 20260831094430 | 76 | 239 | 3.0 | 4.0 | 0.00 | 0.00 | 0.00 | 73 | 1016.3 |
| 20260831093942 | 76 | 238 | 3.0 | 4.0 | 0.00 | 0.00 | 0.00 | 73 | 1016.3 |
| 20260831093424 | 76 | 239 | 3.0 | 4.0 | 0.00 | 0.00 | 0.00 | 72 | 1016.4 |
| 20260831093029 | 76 | 238 | 3.0 | 4.0 | 0.00 | 0.00 | 0.00 | 72 | 1014.6 |
| 20260831092954 | 76 | 239 | 3.0 | 4.0 | 0.00 | 0.00 | 0.00 | 72 | 1016.3 |
| 20260831092444 | 76 | 238 | 4.0 | 4.0 | 0.00 | 0.00 | 0.00 | 72 | 1016.3 |
| 20260831091927 | 76 | 240 | 4.0 | 4.0 | 0.00 | 0.00 | 0.00 | 72 | 1016.2 |
| 20260831091517 | 76 | 240 | 3.0 | 4.0 | 0.00 | 0.00 | 0.00 | 72 | 1014.6 |
| 20260831091440 | 76 | 238 | 4.0 | 4.0 | 0.00 | 0.00 | 0.00 | 72 | 1016.2 |
| 20260831090949 | 76 | 232 | 3.0 | 4.0 | 0.00 | 0.00 | 0.00 | 72 | 1016.2 |
| 20260831090433 | 76 | 238 | 3.0 | 4.0 | 0.00 | 0.00 | 0.00 | 72 | 1016.2 |
| 20260831090022 | 76 | 238 | 3.0 | 5.0 | 0.00 | 0.00 | 0.00 | 72 | 1014.6 |
| 20260831085921 | 76 | 238 | 4.0 | 5.0 | 0.00 | 0.00 | 0.00 | 72 | 1016.2 |
| 20260831085448 | 76 | 239 | 4.0 | 5.0 | 0.00 | 0.00 | 0.00 | 71 | 1016.2 |
| 20260831084938 | 77 | 240 | 4.0 | 4.0 | 0.00 | 0.00 | 0.00 | 71 | 1016.2 |
| 20260831084552 | 76 | 240 | 3.0 | 5.0 | 0.00 | 0.00 | 0.00 | 71 | 1014.5 |
| 20260831084450 | 77 | 240 | 4.0 | 5.0 | 0.00 | 0.00 | 0.00 | 71 | 1016.1 |
| 20260831083931 | 77 | 238 | 4.0 | 5.0 | 0.00 | 0.00 | 0.00 | 70 | 1016.1 |
| 20260831083503 | 77 | 237 | 4.0 | 5.0 | 0.00 | 0.00 | 0.00 | 70 | 1016.1 |